[Iaude] MPEC C134: 2024 BR10 [a=1.94,e=0.41,i=1.7,H=22.9]

mpec at cfa.harvard.edu mpec at cfa.harvard.edu
Mon Feb 12 20:51:13 EST 2024


M.P.E.C. 2024-C134                            Issued 2024 February 13, 01:49 UT

     The Minor Planet Electronic Circulars contain information on unusual
         minor planets, routine data on comets and natural satellites,
         and occasional editorial announcements.  They are published
    on behalf of Division F of the International Astronomical Union by the
          Minor Planet Center, Smithsonian Astrophysical Observatory,
                          Cambridge, MA 02138, U.S.A.
			  
             Prepared using the Tamkin Foundation Computer Network

                              MPC at CFA.HARVARD.EDU
            URL https://www.minorplanetcenter.net/    ISSN 1523-6714

                                   2024 BR10                                    


Observations:
     K24B10R* C2024 01 21.41851610 59 54.790+10 03 14.62         21.33wXEC134F51
     K24B10R  C2024 01 21.43014410 59 57.170+10 03 06.96         21.70wXEC134F51
     K24B10R  C2024 01 21.44174510 59 59.527+10 02 59.14         21.41wXEC134F51
     K24B10R  C2024 01 21.45336111 00 01.881+10 02 51.21         21.22wXEC134F51
     K24B10R  C2024 02 09.54117012 06 41.079+06 22 17.62         21.61wXEC134F52
     K24B10R  C2024 02 09.55299212 06 43.169+06 22 09.98         21.58wXEC134F52
     K24B10R  C2024 02 09.56484412 06 45.260+06 22 02.35         21.04wXEC134F52
     K24B10R  C2024 02 09.57668112 06 47.340+06 21 54.66         21.15wXEC134F52
     K24B10R  C2024 02 09.64789412 06 59.980+06 21 07.82         20.96GVEC134F52
     K24B10R  C2024 02 09.64871312 07 00.134+06 21 07.22         20.70GVEC134F52
     K24B10R  C2024 02 09.64953212 07 00.276+06 21 06.67         20.82GVEC134F52
     K24B10R  C2024 02 09.65035112 07 00.434+06 21 06.10         20.87GVEC134F52
     K24B10R |C2024 02 10.25617912 08 59.750+06 15 13.50         21.0 GVEC134807
     K24B10R |C2024 02 10.26065012 09 00.540+06 15 10.60         21.0 GVEC134807
     K24B10R |C2024 02 10.26498012 09 01.300+06 15 07.50         20.9 GVEC134807
     K24B10R KC2024 02 12.48267 12 15 57.62 +05 51 01.1          21.0 RVEC134691
     K24B10R KC2024 02 12.49349 12 15 59.47 +05 50 54.8          20.8 RVEC134691

Observer details:
691 Steward Observatory, Kitt Peak-Spacewatch.  Observer M. T. Read.  0.9-m
    f/3 reflector + CCD.
807 Cerro Tololo Observatory, La Serena.  Observers T. Linder, R. Holmes.
    0.61-m f/11 Ritchey-Chretien + CCD.
F51 Pan-STARRS 1, Haleakala.  Observers J. Herman, T. Lowe, P. Minguez, A.
    Schultz, I. Smith.  Measurers K. Chambers, T. de Boer, J. Fairlamb, H.
    Gao, M. Huber, C.-C. Lin, E. Magnier, Y. Ramanjooloo, R. Wainscoat, R.
    Weryk.  1.8-m Ritchey-Chretien + CCD.
F52 Pan-STARRS 2, Haleakala.  Observers J. Herman, T. Lowe, P. Minguez, A.
    Schultz, I. Smith.  Measurers K. Chambers, T. de Boer, J. Fairlamb, H.
    Gao, M. Huber, C.-C. Lin, E. Magnier, Y. Ramanjooloo, R. Wainscoat, R.
    Weryk.  1.8-m Ritchey-Chretien + CCD.

Orbital elements:
2024 BR10                                                Earth MOID = 0.1575 AU
Epoch 2023 Sept. 13.0 TT = JDT 2460200.5                orbfit                  
M 303.89633              (2000.0)            P               Q                  
n   0.36461233     Peri.   45.50350     -0.86831883     -0.49517615             
a   1.9405067      Node   104.79545     +0.44624376     -0.80514536             
e   0.4094201      Incl.    1.70031     +0.21653848     -0.32640701             
P   2.70           H   22.99          G   0.15           U   8                  
Residuals in seconds of arc
240121 F51  0.0   0.0     240209 F52  0.1+  0.0     240210 807  0.0   0.1+
240121 F51  0.1+  0.1+    240209 F52  0.0   0.0     240210 807  0.0   0.0
240121 F51  0.0   0.0     240209 F52  0.1-  0.1+    240210 807  0.0   0.3-
240121 F51  0.1-  0.1-    240209 F52  0.0   0.0     240212 691  0.0   0.1+
240209 F52  0.1+  0.0     240209 F52  0.1-  0.0     240212 691  0.1+  0.6+
240209 F52  0.1+  0.0     240209 F52  0.1+  0.0

Ephemeris:
2024 BR10                a,e,i = 1.94, 0.41, 2                   q = 1.1460
Date    TT    R. A. (2000) Decl.     Delta      r    Elong.  Phase     V
2024 01 14    10 33 45.7 +11 27 50   0.2614  1.1885   137.1    34.3    21.9
...
2024 01 29    11 27 01.5 +08 34 18   0.2172  1.1575   139.0    34.0    21.4
...
2024 02 06    11 54 57.5 +07 01 35   0.2030  1.1488   139.9    33.5    21.2
...
2024 02 12    12 14 28.7 +05 56 23   0.1962  1.1461   141.0    32.9    21.1
2024 02 13    12 17 33.6 +05 46 01   0.1954  1.1460   141.2    32.7    21.1
2024 02 14    12 20 35.2 +05 35 50   0.1946  1.1459   141.4    32.5    21.1
...
2024 02 20    12 37 27.1 +04 38 15   0.1919  1.1476   143.0    31.2    21.0
...
2024 02 28    12 55 57.2 +03 32 05   0.1925  1.1550   146.0    28.6    21.0
...
2024 03 14    13 16 48.2 +02 00 43   0.2058  1.1838   154.9    20.9    21.0

M. P. C. Staff               (C) Copyright 2024 MPC           M.P.E.C. 2024-C134





More information about the Iaude mailing list